Location: Newark
(48.5667°N, 7.8167°E)
Time: 04:59:07
(UTC+00:00)

JY1SAT - Pass Details

Date: 25 July 2021
Orbit: 568 x 591 km, 97.7° (Epoch: 19 September)

Event Time Altitude Azimuth Distance (km) Brightness Sun altitude
Exits shadow 22:29:47 - 240° (WSW) 2,021 ? -20.4°
Reaches altitude 10° 22:30:23 10° 247° (WSW) 1,908 ? -20.5°
Maximum altitude 22:32:08 12° 272° (W) 1,763 ? -20.5°
Drops below altitude 10° 22:33:54 10° 298° (WNW) 1,920 ? -20.6°
Sets 22:37:21 0° 328° (NNW) 2,833 ? -20.8°
